sat.trackr.live / text

‹ back to catalog

STARLINK-4512

NORAD 53398 · 2022-097L

PAYLOAD ACTIVE UNKNOWN

§ Identity

Operator
Country
US
Launch date
2022-08-10
Launch site
AFETR
Launch vehicle
Mass (kg)
RCS (m²)

Purposes: comms

External: N2YO · Heavens-Above · Gunter

§ Orbital elements

Epoch: 2026-05-24T23:42:28.321056Z

Period
95.44 min
Inclination
53.2147°
Eccentricity
0.0001402
Mean motion
15.08816696 rev/d
Perigee alt
538.8 km
Apogee alt
540.8 km
Semi-major
6,918.0 km
B*
2.7733e-4
RAAN
141.6056°
Arg perigee
89.6549°
Mean anomaly
270.4604°
Rev number
21,003

§ Raw data

STARLINK-45121 53398U 22097L   26144.98782779  .00004126  00000+0  27733-3 0  99992 53398  53.2147 141.6056 0001402  89.6549 270.4604 15.08816696210032

JSON: /api/v1/satellites/53398 · /tle

For live sub-satellite position, see the globe view (requires WebGL).

§ Visibility from observer

Set your observer location to see the next 7 days of passes ≥ 10°. The values pass through the URL so the page stays shareable.

No JS? Fill the form by hand. The geolocation button needs JavaScript.